Current weather by "City, St" or "zip code"  
 
Advertise Here

Current Conditions: Maxwell Air Force Base / Montgomery, AL

Fair


31.0 F

Last Updated on Jan 18 2021, 4:56 am CST
Humidity: 86%
Wind Speed: N 0.0 mph
Barometer 30.08 in
Dewpoint: 27.1 F
Visibility: 10.00 mi
Precip: --
Heat Index: NA
Wind Chill: NA
Current conditions at:

Maxwell Air Force Base / Montgomery, AL (KMXF)

Lat: 32.38333 Lon: 86.36667

Local Radar Image active severe weather and emergency alerts image image weather storm and storm spotter reports image weather observation monitoring service image
Local
Radar
Active
Alerts
Storm Reports Obs
Monitoring

Sign-up For Email & Text Message Weather Alert Notification Services


Advertise Here

Observation History for Maxwell Air Force Base / Montgomery, AL


Time Wind
(mph)
Vis
(mi)
Weather Precip (in) Temperature (F) Relative
Humidity
Wind
Chill
(F)
Heat
Index
(F)
Pressure
Air Dwpt altimeter
(in)
sea level
(mb)
Rmks
4:56 am CST N 0.0 10.00 Fair -- 31.0 27.1 86% NA NA 30.08 1019.0
3:56 am CST N 0.0 10.00 Fair -- 29.0 25.9 87% NA NA 30.07 1018.6
2:56 am CST N 0.0 10.00 Fair -- 31.0 27.3 86% NA NA 30.06 1018.3
1:56 am CST N 0.0 10.00 Fair -- 35.0 27.1 73% NA NA 30.05 1017.9
12:56 am CST N 0.0 10.00 Fair -- 38.0 27.1 66% NA NA 30.04 1017.6
11:56 pm CST W 3.5 10.00 Fair -- 42.0 25.9 52% NA NA 30.02 1016.9
10:56 pm CST W 3.5 10.00 Fair -- 45.0 27.0 49% NA NA 30.01 1016.6
9:56 pm CST W 3.5 10.00 Mostly Cloudy -- 46.0 32.2 58% NA NA 30.00 1016.2
8:56 pm CST W 3.5 10.00 Overcast -- 47.0 31.8 55% NA NA 29.98 1015.6
7:56 pm CST S 4.6 10.00 Mostly Cloudy -- 46.0 30.9 55% 44 NA 29.95 1014.6
6:56 pm CST S 4.6 10.00 Fair -- 43.0 30.9 63% 40 NA 29.95 1014.6
5:56 pm CST S 4.6 10.00 Fair -- 46.0 29.7 53% 44 NA 29.94 1014.3
4:56 pm CST SW 4.6 10.00 Fair -- 53.0 28.4 38% 52 NA 29.93 1013.9
3:56 pm CST SW 6.9 10.00 Fair -- 56.0 28.8 35% 54 NA 29.93 1013.9
2:56 pm CST W 4.6 10.00 Fair -- 56.0 27.3 33% 55 NA 29.94 1014.2
1:56 pm CST SW 10.4 10.00 Fair -- 55.0 28.6 36% 52 NA 29.95 1014.6
12:56 pm CST W 8.1 10.00 A Few Clouds -- 55.0 29.5 38% 53 NA 29.97 1015.2
11:56 am CST SW 8.1 10.00 Mostly Cloudy -- 52.0 29.1 41% 49 NA 30.00 1016.3
10:56 am CST SW 6.9 10.00 Mostly Cloudy -- 50.0 30.2 47% 47 NA 30.03 1017.3
9:56 am CST N 0.0 10.00 Mostly Cloudy -- 43.0 32.2 66% NA NA 30.06 1018.3
8:56 am CST N 0.0 10.00 Mostly Cloudy -- 37.0 30.2 75% NA NA 30.07 1018.7
7:56 am CST N 0.0 10.00 Overcast -- 33.0 28.9 85% NA NA 30.04 1017.7
6:56 am CST N 0.0 10.00 Fair -- 26.0 25.2 95% NA NA 30.03 1017.3
5:56 am CST N 0.0 10.00 Fair -- 26.0 24.8 94% NA NA 30.01 1016.7

Regional Weather Observation


Maxwell Air Force Base / Montgomery, AL (KMXF)

Fair
31.0 F

Montgomery, Dannelly Field, AL (KMGM)

Fair
32.0 F

Craig Field / Selma, AL (KSEM)

Fair
28.0 F

Alexander City, Thomas C Russell Field Airport, AL (KALX)

Fair
28.0 F

Alabaster, Shelby County Airport, AL (KEET)

Fair
30.0 F

Vaiden Fld Airport, AL (KA08)

Drizzle
NULL F